QPF
0.02 0.03 0.02 0.03 0.03 0.03 0.02 0.02 0.02 0.02 0.02 0.03 0.03 0.02 0.01 0.00 0.00 0.00 0.01 0.01 0.02 0.04 0.06 0.06 0.05 0.05 0.04 0.04 0.04 0.03 0.03 0.02 0.01 0.01 0.01 0.01 0.01 0.01 0.01 0.02 0.02 0.02 0.01
0.05 0.04 0.03 0.03 0.02 0.03 0.03 0.03 0.02 0.02 0.03 0.03 0.04 0.03 0.01 0.01 0.01 0.01 0.01 0.01 0.02 0.03 0.05 0.06 0.06 0.06 0.06 0.06 0.06 0.06 0.05 0.04 0.03 0.02 0.01 0.01 0.01 0.01 0.01 0.02 0.03 0.02 0.01
0.06 0.05 0.04 0.03 0.02 0.02 0.03 0.03 0.04 0.04 0.04 0.04 0.04 0.04 0.03 0.02 0.02 0.02 0.01 0.01 0.01 0.02 0.03 0.05 0.06 0.07 0.08 0.09 0.08 0.08 0.08 0.07 0.05 0.03 0.03 0.02 0.01 0.01 0.02 0.02 0.03 0.03 0.02
0.06 0.07 0.05 0.03 0.02 0.04 0.05 0.03 0.03 0.03 0.04 0.04 0.04 0.05 0.05 0.04 0.02 0.02 0.02 0.02 0.02 0.01 0.02 0.03 0.05 0.07 0.09 0.09 0.08 0.07 0.06 0.06 0.05 0.04 0.04 0.03 0.03 0.02 0.02 0.02 0.03 0.03 0.02
0.05 0.07 0.09 0.07 0.04 0.03 0.04 0.05 0.03 0.03 0.03 0.04 0.05 0.06 0.06 0.05 0.04 0.03 0.03 0.03 0.02 0.02 0.02 0.03 0.04 0.08 0.12 0.13 0.09 0.07 0.06 0.05 0.05 0.06 0.05 0.04 0.04 0.04 0.04 0.03 0.04 0.04 0.03
0.05 0.07 0.08 0.10 0.11 0.08 0.05 0.05 0.06 0.04 0.03 0.03 0.05 0.07 0.07 0.06 0.05 0.05 0.04 0.03 0.02 0.02 0.02 0.02 0.03 0.05 0.12 0.20 0.20 0.14 0.10 0.08 0.08 0.07 0.07 0.06 0.05 0.05 0.05 0.04 0.03 0.04 0.04
0.04 0.07 0.08 0.09 0.10 0.09 0.09 0.08 0.07 0.06 0.04 0.03 0.03 0.04 0.06 0.07 0.06 0.06 0.05 0.02 0.02 0.03 0.03 0.03 0.02 0.03 0.05 0.12 0.17 0.15 0.11 0.10 0.09 0.08 0.07 0.06 0.05 0.05 0.05 0.05 0.04 0.04 0.04
0.03 0.04 0.06 0.07 0.08 0.09 0.08 0.08 0.08 0.07 0.05 0.03 0.02 0.03 0.05 0.06 0.05 0.05 0.04 0.03 0.02 0.02 0.03 0.03 0.03 0.03 0.03 0.05 0.07 0.09 0.09 0.10 0.11 0.08 0.07 0.06 0.06 0.06 0.05 0.05 0.04 0.05 0.05
0.03 0.04 0.05 0.05 0.06 0.07 0.07 0.07 0.07 0.06 0.05 0.04 0.03 0.02 0.03 0.04 0.03 0.03 0.02 0.02 0.02 0.01 0.01 0.02 0.03 0.03 0.03 0.03 0.03 0.03 0.05 0.09 0.11 0.10 0.09 0.10 0.09 0.07 0.07 0.07 0.06 0.05 0.06
0.05 0.04 0.04 0.06 0.07 0.08 0.06 0.06 0.05 0.05 0.05 0.04 0.04 0.02 0.01 0.01 0.01 0.02 0.01 0.01 0.01 0.01 0.01 0.02 0.02 0.02 0.02 0.02 0.03 0.04 0.04 0.05 0.06 0.06 0.07 0.08 0.08 0.08 0.08 0.08 0.08 0.09 0.09
0.05 0.05 0.04 0.03 0.05 0.06 0.05 0.04 0.04 0.04 0.05 0.04 0.03 0.02 0.01 0.01 0.01 0.00 0.01 0.01 0.01 0.01 0.01 0.01 0.02 0.03 0.02 0.02 0.02 0.03 0.03 0.03 0.03 0.05 0.06 0.06 0.07 0.08 0.07 0.06 0.07 0.08 0.09
0.04 0.04 0.03 0.03 0.03 0.04 0.05 0.05 0.04 0.04 0.04 0.04 0.04 0.03 0.02 0.01 0.01 0.01 0.01 0.01 0.00 0.00 0.01 0.01 0.02 0.02 0.03 0.03 0.02 0.02 0.02 0.03 0.04 0.05 0.05 0.05 0.06 0.08 0.07 0.06 0.06 0.06 0.06
0.03 0.04 0.03 0.03 0.03 0.04 0.04 0.05 0.05 0.05 0.04 0.03 0.03 0.03 0.03 0.02 0.01 0.01 0.01 0.01 0.00 0.00 0.00 0.01 0.01 0.01 0.01 0.02 0.02 0.02 0.02 0.02 0.02 0.03 0.03 0.04 0.04 0.05 0.07 0.08 0.07 0.06 0.05
0.02 0.02 0.03 0.03 0.03 0.03 0.04 0.04 0.04 0.05 0.05 0.05 0.03 0.02 0.02 0.02 0.01 0.01 0.01 0.01 0.01 0.01 0.01 0.01 0.01 0.01 0.01 0.01 0.02 0.02 0.02 0.02 0.01 0.01 0.02 0.02 0.03 0.03 0.04 0.06 0.09 0.08 0.07
0.02 0.02 0.03 0.03 0.03 0.03 0.04 0.04 0.04 0.04 0.05 0.05 0.04 0.03 0.02 0.02 0.01 0.01 0.01 0.01 0.01 0.01 0.01 0.01 0.01 0.01 0.01 0.01 0.02 0.01 0.01 0.02 0.01 0.01 0.02 0.02 0.02 0.01 0.02 0.04 0.07 0.08 0.08
0.02 0.01 0.01 0.02 0.03 0.03 0.03 0.04 0.04 0.04 0.04 0.05 0.05 0.05 0.04 0.03 0.02 0.02 0.01 0.01 0.00 0.01 0.01 0.01 0.00 0.00 0.01 0.01 0.02 0.01 0.01 0.02 0.02 0.02 0.03 0.04 0.04 0.02 0.02 0.03 0.05 0.08 0.10
0.02 0.01 0.01 0.01 0.03 0.03 0.03 0.04 0.05 0.05 0.05 0.04 0.05 0.05 0.04 0.03 0.03 0.03 0.02 0.01 0.01 0.00 0.00 0.01 0.00 0.00 0.00 0.01 0.01 0.01 0.01 0.01 0.01 0.02 0.02 0.02 0.02 0.03 0.03 0.03 0.05 0.05 0.05
0.02 0.02 0.02 0.01 0.02 0.03 0.04 0.04 0.04 0.04 0.04 0.04 0.04 0.05 0.05 0.04 0.04 0.03 0.02 0.02 0.01 0.01 0.01 0.01 0.00 0.00 0.01 0.01 0.01 0.01 0.01 0.01 0.01 0.01 0.02 0.02 0.02 0.02 0.02 0.02 0.04 0.04 0.03
0.03 0.02 0.02 0.02 0.02 0.02 0.03 0.05 0.04 0.04 0.04 0.04 0.05 0.04 0.04 0.04 0.04 0.04 0.03 0.02 0.01 0.01 0.01 0.01 0.01 0.01 0.01 0.01 0.01 0.01 0.01 0.01 0.01 0.01 0.02 0.02 0.02 0.02 0.02 0.01 0.02 0.03 0.02
0.03 0.03 0.03 0.03 0.02 0.02 0.03 0.04 0.05 0.05 0.05 0.05 0.05 0.05 0.04 0.03 0.03 0.03 0.03 0.02 0.02 0.02 0.01 0.01 0.01 0.01 0.01 0.01 0.01 0.01 0.01 0.01 0.01 0.01 0.01 0.01 0.01 0.02 0.02 0.02 0.02 0.01 0.01
0.03 0.03 0.03 0.03 0.03 0.03 0.03 0.04 0.04 0.04 0.05 0.06 0.06 0.05 0.04 0.03 0.03 0.03 0.02 0.02 0.02 0.02 0.01 0.01 0.01 0.01 0.01 0.01 0.01 0.01 0.01 0.01 0.01 0.01 0.01 0.01 0.02 0.02 0.03 0.03 0.03 0.03 0.02
0.03 0.04 0.03 0.03 0.02 0.03 0.03 0.05 0.04 0.03 0.04 0.05 0.06 0.05 0.05 0.04 0.03 0.03 0.02 0.02 0.02 0.02 0.01 0.01 0.01 0.01 0.01 0.01 0.01 0.01 0.01 0.01 0.01 0.02 0.02 0.02 0.03 0.03 0.03 0.03 0.04 0.05 0.03
0.03 0.04 0.04 0.03 0.02 0.02 0.03 0.03 0.04 0.03 0.03 0.03 0.05 0.05 0.05 0.05 0.04 0.03 0.03 0.03 0.02 0.02 0.02 0.01 0.01 0.00 0.00 0.01 0.01 0.01 0.01 0.02 0.01 0.02 0.03 0.04 0.04 0.04 0.03 0.03 0.04 0.05 0.04
0.02 0.03 0.03 0.03 0.03 0.02 0.03 0.03 0.03 0.03 0.03 0.02 0.03 0.04 0.04 0.04 0.04 0.03 0.02 0.03 0.02 0.02 0.01 0.01 0.01 0.01 0.01 0.01 0.01 0.02 0.02 0.02 0.02 0.02 0.02 0.04 0.04 0.03 0.03 0.03 0.03 0.04 0.04
0.02 0.02 0.02 0.02 0.02 0.02 0.03 0.03 0.03 0.03 0.03 0.03 0.02 0.03 0.04 0.03 0.03 0.03 0.03 0.02 0.02 0.02 0.02 0.02 0.02 0.02 0.02 0.02 0.02 0.02 0.02 0.02 0.02 0.02 0.01 0.02 0.02 0.02 0.03 0.03 0.02 0.02 0.02
0.02 0.02 0.02 0.02 0.02 0.02 0.02 0.03 0.03 0.03 0.03 0.03 0.03 0.03 0.04 0.03 0.03 0.03 0.03 0.03 0.02 0.02 0.01 0.01 0.02 0.02 0.02 0.01 0.01 0.01 0.02 0.02 0.02 0.02 0.01 0.01 0.01 0.01 0.02 0.02 0.02 0.02 0.01
MSLP
1023.79 1023.71 1023.65 1023.62 1023.60 1023.58 1023.54 1023.45 1023.33 1023.15 1022.95 1022.74 1022.54 1022.37 1022.21 1022.08 1021.94 1021.80 1021.63 1021.43 1021.20 1020.95 1020.72 1020.51 1020.34 1020.24 1020.20 1020.21 1020.26 1020.35 1020.46 1020.58 1020.71 1020.87 1021.05 1021.26 1021.50 1021.76 1022.05 1022.34 1022.64 1022.93 1023.21
1023.90 1023.78 1023.70 1023.65 1023.63 1023.62 1023.60 1023.55 1023.44 1023.27 1023.06 1022.82 1022.59 1022.37 1022.18 1022.03 1021.90 1021.78 1021.65 1021.50 1021.34 1021.15 1020.95 1020.77 1020.61 1020.48 1020.40 1020.36 1020.35 1020.38 1020.43 1020.51 1020.61 1020.74 1020.90 1021.10 1021.33 1021.59 1021.86 1022.15 1022.45 1022.74 1023.04
1023.94 1023.80 1023.69 1023.63 1023.61 1023.63 1023.63 1023.61 1023.53 1023.37 1023.16 1022.90 1022.63 1022.37 1022.15 1021.96 1021.81 1021.70 1021.59 1021.48 1021.36 1021.23 1021.08 1020.93 1020.79 1020.66 1020.56 1020.48 1020.43 1020.40 1020.40 1020.43 1020.49 1020.58 1020.71 1020.88 1021.08 1021.32 1021.58 1021.85 1022.14 1022.44 1022.76
1023.96 1023.79 1023.67 1023.60 1023.60 1023.63 1023.67 1023.68 1023.62 1023.49 1023.28 1023.01 1022.71 1022.41 1022.14 1021.91 1021.72 1021.58 1021.48 1021.38 1021.29 1021.20 1021.09 1020.98 1020.86 1020.75 1020.64 1020.55 1020.47 1020.41 1020.37 1020.35 1020.36 1020.41 1020.49 1020.62 1020.78 1020.98 1021.20 1021.45 1021.73 1022.03 1022.36
1024.03 1023.84 1023.70 1023.62 1023.62 1023.67 1023.73 1023.76 1023.74 1023.63 1023.43 1023.16 1022.84 1022.51 1022.19 1021.91 1021.68 1021.50 1021.37 1021.26 1021.17 1021.09 1021.01 1020.92 1020.83 1020.74 1020.65 1020.56 1020.47 1020.39 1020.32 1020.26 1020.23 1020.22 1020.26 1020.33 1020.44 1020.58 1020.77 1020.98 1021.24 1021.53 1021.86
1024.21 1023.99 1023.82 1023.73 1023.71 1023.75 1023.82 1023.87 1023.86 1023.77 1023.59 1023.33 1023.01 1022.66 1022.31 1021.99 1021.72 1021.49 1021.31 1021.18 1021.06 1020.97 1020.89 1020.81 1020.74 1020.67 1020.59 1020.52 1020.44 1020.35 1020.26 1020.18 1020.11 1020.06 1020.03 1020.04 1020.09 1020.18 1020.31 1020.49 1020.71 1020.99 1021.31
1024.54 1024.27 1024.06 1023.92 1023.87 1023.88 1023.93 1023.97 1023.97 1023.89 1023.73 1023.49 1023.18 1022.84 1022.49 1022.15 1021.85 1021.58 1021.35 1021.16 1021.01 1020.88 1020.78 1020.69 1020.62 1020.56 1020.50 1020.44 1020.38 1020.30 1020.20 1020.10 1020.00 1019.91 1019.84 1019.79 1019.78 1019.81 1019.89 1020.02 1020.20 1020.44 1020.74
1025.02 1024.69 1024.41 1024.21 1024.10 1024.05 1024.04 1024.05 1024.02 1023.95 1023.80 1023.59 1023.32 1023.02 1022.69 1022.36 1022.05 1021.76 1021.49 1021.25 1021.04 1020.86 1020.71 1020.59 1020.51 1020.44 1020.39 1020.35 1020.29 1020.22 1020.14 1020.03 1019.91 1019.79 1019.67 1019.58 1019.51 1019.49 1019.51 1019.58 1019.72 1019.92 1020.18
1025.63 1025.22 1024.86 1024.58 1024.37 1024.23 1024.14 1024.08 1024.01 1023.92 1023.78 1023.60 1023.38 1023.14 1022.87 1022.58 1022.29 1021.99 1021.70 1021.42 1021.15 1020.91 1020.70 1020.54 1020.41 1020.33 1020.27 1020.22 1020.18 1020.12 1020.04 1019.93 1019.80 1019.66 1019.52 1019.39 1019.29 1019.22 1019.19 1019.22 1019.30 1019.45 1019.66
1026.31 1025.83 1025.38 1025.00 1024.68 1024.43 1024.23 1024.07 1023.93 1023.80 1023.66 1023.51 1023.35 1023.17 1022.98 1022.76 1022.51 1022.23 1021.94 1021.62 1021.30 1021.00 1020.73 1020.50 1020.33 1020.21 1020.13 1020.07 1020.03 1019.97 1019.89 1019.79 1019.66 1019.51 1019.35 1019.20 1019.07 1018.97 1018.91 1018.90 1018.94 1019.04 1019.19
1027.02 1026.47 1025.94 1025.46 1025.03 1024.65 1024.33 1024.05 1023.82 1023.63 1023.47 1023.34 1023.22 1023.11 1022.99 1022.85 1022.66 1022.42 1022.13 1021.80 1021.45 1021.09 1020.76 1020.47 1020.24 1020.07 1019.95 1019.87 1019.82 1019.75 1019.68 1019.57 1019.44 1019.29 1019.13 1018.98 1018.84 1018.73 1018.65 1018.61 1018.62 1018.67 1018.76
1027.69 1027.10 1026.52 1025.95 1025.41 1024.91 1024.46 1024.06 1023.72 1023.45 1023.25 1023.11 1023.03 1022.97 1022.92 1022.84 1022.71 1022.51 1022.24 1021.90 1021.52 1021.12 1020.74 1020.39 1020.10 1019.89 1019.73 1019.62 1019.54 1019.47 1019.38 1019.28 1019.14 1018.99 1018.84 1018.69 1018.55 1018.44 1018.37 1018.32 1018.31 1018.33 1018.38
1028.30 1027.70 1027.07 1026.45 1025.83 1025.22 1024.65 1024.13 1023.68 1023.32 1023.06 1022.90 1022.81 1022.77 1022.76 1022.72 1022.64 1022.47 1022.21 1021.88 1021.48 1021.06 1020.63 1020.25 1019.92 1019.66 1019.47 1019.33 1019.22 1019.13 1019.02 1018.91 1018.77 1018.62 1018.47 1018.32 1018.20 1018.11 1018.04 1018.00 1017.99 1017.99 1018.01
1028.81 1028.22 1027.60 1026.94 1026.26 1025.58 1024.91 1024.29 1023.73 1023.28 1022.95 1022.73 1022.61 1022.56 1022.55 1022.52 1022.45 1022.30 1022.05 1021.72 1021.32 1020.88 1020.44 1020.03 1019.68 1019.39 1019.17 1019.01 1018.87 1018.75 1018.63 1018.49 1018.34 1018.19 1018.03 1017.90 1017.79 1017.71 1017.67 1017.65 1017.64 1017.65 1017.65
1029.20 1028.65 1028.05 1027.39 1026.69 1025.95 1025.22 1024.51 1023.87 1023.34 1022.92 1022.63 1022.45 1022.36 1022.32 1022.27 1022.18 1022.02 1021.76 1021.43 1021.03 1020.59 1020.15 1019.74 1019.38 1019.10 1018.86 1018.68 1018.53 1018.38 1018.23 1018.07 1017.90 1017.73 1017.57 1017.43 1017.33 1017.27 1017.24 1017.24 1017.25 1017.27 1017.28
1029.46 1028.96 1028.39 1027.76 1027.06 1026.30 1025.53 1024.77 1024.07 1023.46 1022.97 1022.61 1022.36 1022.19 1022.08 1021.98 1021.85 1021.65 1021.38 1021.04 1020.64 1020.21 1019.79 1019.40 1019.06 1018.78 1018.56 1018.37 1018.20 1018.04 1017.86 1017.68 1017.48 1017.28 1017.10 1016.95 1016.84 1016.78 1016.76 1016.77 1016.80 1016.84 1016.86
1029.59 1029.13 1028.60 1027.99 1027.30 1026.56 1025.77 1025.00 1024.26 1023.61 1023.06 1022.63 1022.30 1022.06 1021.86 1021.69 1021.49 1021.24 1020.93 1020.58 1020.18 1019.77 1019.38 1019.02 1018.72 1018.46 1018.25 1018.07 1017.90 1017.72 1017.53 1017.31 1017.08 1016.85 1016.64 1016.46 1016.33 1016.26 1016.23 1016.24 1016.28 1016.33 1016.37
1029.59 1029.15 1028.64 1028.06 1027.39 1026.66 1025.90 1025.13 1024.39 1023.71 1023.13 1022.64 1022.25 1021.93 1021.65 1021.38 1021.11 1020.80 1020.46 1020.08 1019.68 1019.30 1018.93 1018.61 1018.34 1018.12 1017.94 1017.77 1017.59 1017.41 1017.19 1016.95 1016.69 1016.42 1016.18 1015.97 1015.81 1015.70 1015.65 1015.65 1015.68 1015.72 1015.77
1029.46 1029.02 1028.52 1027.95 1027.30 1026.60 1025.86 1025.11 1024.39 1023.73 1023.13 1022.61 1022.17 1021.78 1021.42 1021.08 1020.73 1020.36 1019.97 1019.57 1019.17 1018.79 1018.46 1018.17 1017.93 1017.74 1017.57 1017.41 1017.24 1017.04 1016.81 1016.55 1016.27 1015.98 1015.70 1015.46 1015.26 1015.11 1015.02 1014.98 1014.98 1015.00 1015.04
1029.24 1028.77 1028.25 1027.67 1027.04 1026.36 1025.65 1024.94 1024.26 1023.61 1023.03 1022.50 1022.02 1021.58 1021.16 1020.75 1020.34 1019.91 1019.48 1019.06 1018.65 1018.28 1017.96 1017.68 1017.46 1017.28 1017.12 1016.96 1016.79 1016.58 1016.34 1016.07 1015.77 1015.46 1015.16 1014.89 1014.65 1014.46 1014.32 1014.23 1014.19 1014.17 1014.18
1028.94 1028.43 1027.88 1027.28 1026.64 1025.98 1025.30 1024.63 1023.98 1023.37 1022.80 1022.28 1021.79 1021.32 1020.86 1020.40 1019.93 1019.46 1018.99 1018.54 1018.12 1017.75 1017.42 1017.15 1016.92 1016.73 1016.56 1016.38 1016.19 1015.98 1015.73 1015.45 1015.15 1014.84 1014.54 1014.25 1013.98 1013.76 1013.57 1013.43 1013.33 1013.26 1013.22
1028.62 1028.05 1027.45 1026.81 1026.16 1025.50 1024.84 1024.20 1023.59 1023.01 1022.47 1021.96 1021.46 1020.98 1020.49 1019.99 1019.50 1018.99 1018.50 1018.03 1017.59 1017.20 1016.86 1016.56 1016.31 1016.08 1015.88 1015.67 1015.45 1015.22 1014.96 1014.69 1014.40 1014.10 1013.81 1013.53 1013.26 1013.01 1012.79 1012.59 1012.43 1012.31 1012.22
1028.27 1027.65 1027.00 1026.33 1025.65 1024.98 1024.33 1023.70 1023.11 1022.56 1022.04 1021.53 1021.04 1020.54 1020.04 1019.53 1019.01 1018.50 1017.99 1017.51 1017.06 1016.64 1016.27 1015.93 1015.63 1015.35 1015.09 1014.84 1014.58 1014.32 1014.06 1013.79 1013.53 1013.26 1013.00 1012.74 1012.49 1012.24 1012.00 1011.76 1011.55 1011.37 1011.22
1027.93 1027.25 1026.56 1025.85 1025.14 1024.46 1023.80 1023.17 1022.59 1022.04 1021.51 1021.01 1020.51 1020.01 1019.50 1018.99 1018.47 1017.95 1017.45 1016.96 1016.50 1016.06 1015.66 1015.28 1014.92 1014.57 1014.24 1013.93 1013.62 1013.34 1013.06 1012.81 1012.57 1012.35 1012.14 1011.93 1011.70 1011.47 1011.23 1010.98 1010.73 1010.50 1010.29
1027.57 1026.86 1026.12 1025.38 1024.65 1023.93 1023.26 1022.61 1022.01 1021.45 1020.91 1020.39 1019.88 1019.37 1018.86 1018.35 1017.85 1017.34 1016.85 1016.38 1015.91 1015.47 1015.03 1014.61 1014.19 1013.78 1013.38 1013.00 1012.64 1012.32 1012.03 1011.79 1011.59 1011.42 1011.26 1011.10 1010.93 1010.74 1010.52 1010.27 1010.00 1009.73 1009.48
1027.17 1026.43 1025.67 1024.90 1024.14 1023.40 1022.69 1022.02 1021.39 1020.79 1020.22 1019.67 1019.14 1018.62 1018.12 1017.62 1017.13 1016.66 1016.19 1015.74 1015.29 1014.84 1014.39 1013.93 1013.46 1012.99 1012.53 1012.08 1011.68 1011.32 1011.02 1010.79 1010.62 1010.49 1010.39 1010.30 1010.19 1010.04 1009.85 1009.62 1009.35 1009.07 1008.79
Thickness
5622 5623 5624 5625 5626 5626 5627 5628 5628 5629 5630 5630 5631 5632 5633 5633 5634 5635 5637 5638 5639 5640 5640 5641 5641 5641 5641 5641 5640 5640 5639 5638 5637 5636 5635 5635 5634 5634 5633 5632 5632 5631 5630
5615 5616 5617 5617 5618 5619 5620 5621 5621 5622 5622 5623 5624 5625 5626 5627 5627 5629 5630 5631 5632 5633 5634 5634 5635 5635 5635 5635 5634 5633 5632 5632 5631 5630 5629 5628 5627 5626 5626 5625 5625 5624 5624
5608 5608 5609 5609 5610 5611 5613 5613 5614 5615 5615 5616 5617 5618 5619 5620 5621 5622 5623 5624 5625 5626 5626 5627 5628 5629 5629 5629 5628 5627 5626 5625 5624 5623 5622 5621 5620 5619 5619 5618 5618 5617 5617
5600 5601 5602 5602 5603 5604 5605 5606 5607 5607 5607 5608 5609 5610 5611 5613 5614 5615 5616 5616 5617 5618 5619 5620 5621 5621 5621 5622 5621 5621 5620 5619 5617 5616 5615 5614 5613 5612 5611 5611 5610 5610 5609
5592 5593 5594 5595 5596 5597 5597 5599 5599 5600 5600 5600 5601 5602 5603 5604 5605 5607 5608 5608 5609 5610 5611 5612 5613 5614 5614 5614 5615 5614 5613 5612 5610 5609 5608 5607 5606 5605 5604 5603 5603 5602 5601
5583 5585 5586 5587 5588 5588 5589 5591 5591 5592 5592 5593 5593 5593 5593 5595 5597 5598 5599 5600 5600 5601 5602 5604 5605 5606 5606 5606 5607 5607 5606 5605 5603 5602 5600 5599 5598 5597 5597 5596 5595 5594 5594
5574 5575 5577 5578 5579 5580 5581 5583 5583 5583 5583 5584 5584 5583 5584 5585 5587 5588 5590 5591 5592 5592 5593 5594 5595 5597 5598 5598 5598 5598 5597 5597 5596 5594 5593 5591 5590 5589 5589 5588 5587 5586 5585
5564 5566 5568 5569 5571 5571 5572 5574 5575 5575 5575 5576 5577 5575 5574 5575 5577 5579 5580 5581 5582 5583 5584 5585 5586 5587 5588 5589 5589 5589 5589 5588 5587 5586 5585 5584 5583 5581 5581 5580 5580 5579 5577
5553 5556 5558 5560 5562 5564 5565 5566 5567 5568 5567 5567 5569 5570 5568 5569 5566 5568 5570 5571 5573 5574 5575 5576 5577 5578 5579 5579 5580 5580 5579 5579 5579 5578 5578 5577 5575 5574 5573 5572 5571 5570 5569
5541 5544 5547 5550 5552 5555 5557 5557 5559 5560 5561 5560 5560 5562 5563 5563 5561 5559 5559 5561 5563 5564 5565 5566 5567 5568 5569 5570 5570 5571 5570 5570 5570 5570 5569 5568 5567 5566 5565 5564 5563 5562 5561
5529 5533 5536 5539 5541 5545 5547 5549 5549 5551 5553 5553 5553 5553 5552 5552 5553 5553 5551 5551 5553 5555 5556 5557 5558 5559 5560 5560 5561 5561 5561 5561 5561 5561 5560 5560 5559 5557 5556 5555 5554 5552 5552
5517 5521 5524 5528 5531 5534 5537 5539 5541 5542 5544 5545 5546 5546 5547 5547 5545 5544 5544 5542 5543 5545 5546 5548 5549 5549 5550 5551 5551 5552 5552 5552 5552 5551 5551 5550 5549 5548 5547 5545 5544 5543 5542
5505 5509 5513 5516 5520 5523 5526 5529 5531 5533 5534 5536 5537 5538 5539 5541 5540 5539 5537 5534 5533 5534 5536 5538 5539 5540 5541 5541 5542 5542 5542 5542 5541 5541 5541 5540 5539 5538 5537 5536 5534 5533 5533
5494 5498 5502 5505 5509 5512 5516 5519 5521 5523 5525 5527 5528 5530 5530 5531 5532 5532 5531 5527 5525 5525 5526 5528 5530 5531 5531 5531 5532 5532 5532 5531 5531 5531 5530 5529 5529 5528 5527 5526 5525 5524 5523
5482 5486 5491 5494 5498 5502 5505 5508 5511 5513 5515 5517 5519 5520 5521 5522 5523 5524 5524 5524 5522 5519 5520 5520 5520 5521 5521 5522 5522 5523 5522 5521 5521 5520 5520 5519 5519 5518 5517 5516 5515 5514 5513
5470 5475 5479 5483 5487 5491 5494 5497 5500 5503 5505 5507 5509 5511 5512 5513 5514 5514 5515 5516 5516 5516 5513 5513 5511 5511 5511 5512 5512 5512 5512 5511 5510 5510 5509 5509 5508 5507 5506 5505 5505 5504 5504
5459 5463 5467 5472 5476 5480 5483 5486 5490 5493 5495 5497 5499 5501 5503 5504 5504 5504 5505 5506 5506 5506 5505 5504 5502 5501 5501 5502 5502 5502 5502 5501 5500 5500 5499 5498 5498 5497 5496 5495 5495 5494 5493
5447 5452 5456 5460 5465 5468 5472 5476 5479 5482 5485 5487 5489 5491 5493 5494 5495 5495 5496 5497 5497 5497 5497 5495 5493 5491 5491 5492 5492 5491 5491 5490 5490 5489 5489 5488 5488 5487 5486 5485 5484 5484 5483
5435 5440 5445 5449 5454 5457 5461 5465 5469 5472 5475 5477 5479 5481 5483 5484 5485 5486 5486 5487 5487 5488 5488 5487 5485 5483 5481 5481 5481 5480 5479 5479 5479 5479 5478 5478 5478 5477 5476 5475 5474 5473 5473
5424 5429 5434 5438 5443 5447 5451 5455 5458 5461 5464 5467 5470 5472 5474 5475 5476 5476 5477 5478 5477 5477 5477 5477 5476 5473 5471 5470 5470 5469 5468 5467 5467 5468 5468 5468 5467 5467 5466 5465 5464 5463 5462
5412 5417 5422 5427 5431 5435 5440 5444 5447 5450 5453 5456 5459 5461 5464 5465 5467 5467 5468 5468 5468 5467 5467 5467 5466 5464 5463 5461 5461 5460 5458 5457 5456 5457 5457 5458 5457 5457 5456 5455 5454 5453 5451
5400 5405 5410 5414 5419 5424 5429 5433 5436 5439 5443 5445 5448 5450 5452 5454 5455 5457 5458 5459 5460 5459 5458 5458 5458 5458 5457 5455 5453 5451 5448 5447 5447 5447 5446 5446 5446 5446 5445 5445 5444 5443 5442
5389 5393 5398 5403 5408 5412 5417 5422 5425 5428 5432 5435 5437 5439 5441 5443 5444 5445 5446 5448 5449 5450 5451 5451 5451 5451 5450 5448 5445 5442 5440 5440 5440 5438 5435 5435 5435 5435 5435 5435 5434 5434 5432
5377 5382 5387 5392 5397 5402 5406 5410 5414 5417 5421 5423 5426 5427 5429 5431 5433 5434 5435 5436 5437 5438 5440 5441 5443 5443 5441 5439 5438 5436 5433 5430 5428 5427 5426 5425 5425 5425 5425 5425 5424 5423 5422
5366 5371 5376 5381 5385 5390 5395 5399 5402 5406 5409 5412 5414 5416 5418 5421 5423 5424 5425 5426 5426 5427 5428 5429 5430 5431 5430 5429 5427 5424 5422 5420 5419 5417 5416 5415 5415 5414 5414 5414 5414 5413 5411
5355 5360 5365 5369 5373 5378 5383 5387 5390 5394 5398 5400 5403 5405 5408 5410 5412 5413 5414 5415 5415 5416 5416 5416 5416 5417 5417 5417 5416 5415 5415 5413 5411 5408 5408 5405 5404 5402 5402 5404 5403 5402 5400